Wetbulb
53.11 53.32 53.24 53.28 53.03 52.90 52.81 52.85 52.94 52.98 53.05 53.22 53.53 54.00 54.10 54.01 53.97 53.54 53.22 52.55 52.58 53.58 53.73 53.81 54.37 54.92 51.04 43.17 41.44 48.26 60.60 56.84 59.42 57.73 51.51 51.13 50.64 51.27 46.86 48.28 50.66 47.84 50.84 51.85 52.81 52.33 53.05
52.06 52.05 52.27 52.27 52.15 51.95 51.71 51.76 51.95 52.62 52.89 53.11 53.21 53.30 53.01 53.14 53.39 53.78 54.00 53.64 53.08 52.30 52.31 53.41 53.52 54.24 47.81 39.05 49.42 48.44 51.93 48.79 48.74 53.19 52.93 50.11 48.81 50.57 45.84 45.10 44.35 48.20 49.64 49.26 49.88 50.83 52.10
52.12 51.82 51.61 51.56 51.41 51.83 51.21 51.19 52.04 52.26 52.47 52.67 52.92 52.94 52.98 52.72 52.68 52.89 53.77 52.92 52.58 53.13 53.07 52.18 53.18 50.86 45.03 42.68 51.99 52.99 51.71 47.69 46.74 47.74 47.59 54.00 52.42 48.90 46.19 42.84 45.60 44.96 41.31 44.32 46.03 47.22 47.26
50.89 51.01 51.23 51.08 51.06 50.98 50.38 50.63 51.66 51.85 51.74 52.57 52.92 53.25 52.61 52.61 52.59 52.23 52.55 53.33 53.43 53.14 53.35 53.25 52.54 48.67 39.54 50.41 51.91 50.40 51.32 49.85 51.28 49.80 47.36 50.15 54.36 49.36 44.27 45.12 44.78 41.47 40.81 37.60 44.58 47.58 47.46
50.43 50.31 50.59 50.41 50.46 50.05 49.61 50.12 51.32 51.23 51.41 51.76 52.44 52.79 52.44 52.21 52.26 52.53 52.73 52.61 52.92 53.37 53.21 52.72 47.55 44.58 37.64 51.14 47.68 50.66 50.89 47.44 49.31 48.88 46.08 49.76 51.53 46.67 44.26 41.45 37.79 38.52 36.50 37.55 40.20 46.19 45.87
50.49 50.28 50.09 50.46 50.71 49.69 50.10 50.66 50.70 50.79 51.31 51.63 52.11 52.48 52.55 51.96 52.13 52.40 52.60 52.27 51.80 50.02 49.66 49.64 48.17 40.76 42.89 40.81 48.35 49.35 50.76 49.55 46.28 44.43 43.52 43.55 45.31 41.48 39.31 37.68 33.12 34.70 35.38 37.77 38.56 44.17 43.09
51.29 51.26 51.10 50.75 50.27 50.17 50.14 50.38 50.59 51.02 51.29 51.69 52.04 52.19 52.38 52.09 51.73 52.05 50.01 42.53 40.50 39.59 42.69 38.48 39.28 39.71 42.27 48.32 50.76 48.26 48.66 46.85 45.85 42.24 36.64 40.67 37.97 37.71 40.29 42.20 41.49 40.89 38.91 38.19 42.09 45.97 43.28
50.88 50.65 50.56 50.54 50.45 50.30 50.44 50.30 50.63 50.82 51.18 51.71 51.81 51.65 51.71 51.76 51.61 51.81 47.82 37.52 41.82 41.54 35.30 42.71 42.64 43.36 45.66 47.26 41.48 45.46 47.93 41.93 41.37 37.27 40.15 38.37 35.95 41.59 44.09 43.72 42.59 41.40 39.43 39.15 43.86 45.82 43.35
50.59 50.74 50.66 50.30 50.29 50.32 50.14 50.19 50.51 50.62 51.21 51.82 51.64 51.28 51.40 51.36 51.57 44.49 39.81 41.36 45.27 44.51 34.99 38.78 42.43 41.60 42.15 44.58 40.58 41.61 46.92 43.38 40.09 37.50 37.87 36.16 39.42 43.79 44.13 42.31 41.11 41.17 39.80 40.72 40.84 42.59 42.86
49.28 49.55 49.87 50.02 50.26 50.30 50.66 51.00 51.11 50.98 51.17 51.64 51.50 51.69 51.56 51.42 44.01 41.73 41.42 43.62 45.95 47.39 30.31 33.56 38.18 41.20 42.98 42.73 38.98 46.00 48.66 44.44 41.40 37.04 38.38 37.25 41.67 41.44 41.84 41.59 42.82 37.82 44.56 44.51 42.88 38.59 32.75
49.24 49.35 49.85 50.49 50.98 51.16 50.95 51.22 51.28 51.46 51.45 51.80 51.57 51.52 51.61 50.82 44.50 41.74 42.89 45.50 45.72 41.27 18.10 35.95 39.62 47.25 44.71 39.57 41.62 42.22 47.43 45.22 40.31 39.15 38.50 35.45 38.51 38.41 39.12 41.72 45.04 40.76 45.81 43.95 42.30 37.37 34.96
49.20 49.42 50.23 50.87 50.79 51.28 51.30 51.50 51.48 51.63 51.76 51.64 51.69 51.53 51.10 47.64 45.57 44.43 45.59 44.91 41.19 29.77 19.74 33.33 38.84 37.42 36.90 41.00 41.47 44.34 41.88 44.55 45.64 40.05 39.91 38.87 43.55 41.73 41.61 44.23 45.81 45.65 42.72 40.16 38.35 35.61 29.42
48.83 49.35 49.93 50.49 50.97 51.08 51.20 51.17 51.64 51.26 51.41 50.79 50.68 50.57 49.33 48.00 41.02 43.38 43.85 39.47 26.80 20.93 34.84 31.43 32.61 36.57 36.48 34.77 38.39 40.05 39.23 35.95 36.10 33.23 32.94 37.13 38.10 40.77 43.20 40.26 42.41 40.77 35.58 26.92 25.38 26.10 27.12
49.27 49.38 49.70 50.67 50.97 50.98 50.76 50.99 51.22 51.29 51.11 50.71 50.14 49.49 47.04 47.05 43.86 44.91 40.19 31.74 21.39 28.61 29.78 36.50 34.82 35.67 32.52 35.03 34.24 35.50 36.10 34.16 38.50 37.02 34.96 31.89 30.23 39.41 42.58 39.98 38.57 38.99 36.19 29.21 23.99 25.72 31.34
49.49 49.60 49.87 50.02 50.66 50.73 50.53 50.57 50.59 50.74 50.62 49.87 48.46 41.73 40.09 42.99 44.67 46.37 39.24 24.43 22.83 29.21 33.82 32.36 33.59 30.54 30.95 34.03 33.88 33.64 32.47 35.09 38.06 39.28 32.36 33.31 33.51 41.92 43.13 43.23 42.99 36.81 35.21 37.98 32.01 33.33 30.45
49.88 49.69 49.81 50.10 50.58 50.18 50.64 50.70 50.82 50.83 50.44 49.67 42.97 41.95 38.93 47.04 46.23 44.42 32.00 26.31 28.37 34.91 34.76 33.77 27.70 31.86 26.95 30.02 30.67 30.91 31.65 37.73 36.76 39.17 38.61 36.45 31.31 40.50 42.31 42.97 43.28 39.81 40.95 32.68 31.44 25.97 25.28
50.05 50.19 49.93 50.46 50.49 50.69 50.65 50.78 50.79 50.76 50.02 47.82 37.23 34.86 39.03 48.40 46.78 38.95 25.42 27.86 31.76 36.56 36.29 32.16 30.31 28.94 30.01 29.40 31.92 30.05 31.08 36.00 39.01 37.04 39.65 36.97 33.91 35.56 39.92 38.43 36.44 34.67 35.87 33.42 34.69 31.74 27.30
49.67 49.82 50.24 50.52 50.81 50.55 50.53 50.43 50.63 50.31 49.19 44.78 38.67 27.19 40.78 47.15 35.06 33.88 28.00 31.90 36.56 33.99 36.63 34.84 34.22 32.10 30.41 32.64 31.50 30.69 29.87 33.57 39.95 39.52 32.90 36.83 32.64 31.54 36.11 39.94 43.43 41.09 36.48 36.01 33.19 30.24 32.03
49.55 49.71 50.05 50.47 50.50 50.38 50.35 50.34 50.46 50.23 49.12 43.17 34.81 33.43 41.59 43.27 28.89 30.87 34.10 33.44 34.45 33.62 33.94 33.87 32.56 34.34 35.61 32.65 28.20 33.35 33.99 38.69 39.35 37.82 34.94 37.40 31.83 28.16 30.75 36.10 38.81 38.71 38.87 38.13 35.19 33.74 32.74
49.24 49.58 49.95 49.95 50.35 50.30 50.01 50.29 50.36 50.13 49.32 38.97 32.33 28.43 32.78 36.03 36.18 33.71 30.41 30.36 30.73 36.76 34.59 34.79 33.64 34.62 32.01 31.69 34.36 31.45 33.21 37.64 39.71 38.91 42.83 40.22 32.08 31.27 29.06 32.60 36.39 36.03 38.43 39.31 34.99 29.93 33.12
48.90 49.10 49.51 49.83 50.05 49.56 49.53 50.09 50.29 49.76 48.32 38.74 32.53 30.52 36.87 27.57 28.95 33.08 31.14 30.58 29.64 30.12 35.22 35.17 30.99 31.79 30.78 28.96 31.37 31.75 35.25 36.80 38.97 41.07 40.01 36.44 27.74 32.66 34.20 37.33 38.71 37.77 38.85 38.74 37.49 38.22 34.57
48.93 48.61 48.94 49.30 49.37 49.19 48.86 49.32 49.95 49.84 46.56 36.45 32.06 31.97 35.47 32.50 34.08 30.37 29.39 28.95 29.71 32.28 33.10 32.25 31.22 33.56 33.20 29.67 32.56 30.42 34.39 35.65 34.87 37.62 36.88 37.59 27.78 31.85 29.97 37.77 38.86 37.62 38.58 39.95 39.88 39.22 38.70
49.00 49.17 48.92 48.81 48.72 48.53 48.42 48.46 49.35 49.47 45.28 36.34 36.85 38.44 38.29 32.70 31.69 26.16 24.67 30.48 31.13 33.04 34.27 36.23 35.06 32.95 31.56 33.42 37.18 37.59 37.78 38.38 38.28 36.33 34.84 34.03 29.91 27.64 25.30 33.23 34.61 32.62 38.52 38.44 39.69 41.73 40.87
48.76 48.99 48.78 48.45 48.64 47.88 47.98 47.97 49.07 49.54 48.86 43.82 41.74 41.03 35.65 29.06 30.66 30.65 31.31 32.46 31.34 33.67 32.52 34.97 36.06 32.85 35.96 39.15 39.70 38.10 37.60 37.42 38.19 37.98 39.13 33.87 31.30 28.96 25.83 31.34 26.30 37.25 42.38 42.95 39.97 41.27 42.32
47.99 48.45 47.98 48.26 47.79 48.36 48.25 48.96 49.04 49.70 49.84 44.38 43.06 41.23 37.10 30.60 32.90 32.49 33.23 33.04 33.69 34.91 32.16 33.38 36.05 38.54 37.18 35.51 30.80 29.16 32.46 33.28 35.54 37.40 37.29 37.63 33.95 27.26 25.72 28.70 33.86 37.94 40.33 39.18 37.28 38.70 43.77
47.56 47.64 47.91 48.15 48.09 48.61 48.54 49.09 49.55 49.83 49.80 45.31 43.74 43.26 40.70 33.85 29.95 35.31 34.19 34.45 33.37 32.95 32.49 34.20 38.55 39.54 38.32 32.92 28.51 24.98 22.63 30.58 30.52 33.92 38.17 37.70 36.39 31.79 29.06 28.19 26.41 36.33 42.25 44.74 43.11 34.90 43.51
47.83 47.81 47.66 47.67 48.04 48.83 48.42 49.32 49.75 49.84 50.04 46.33 43.31 43.76 42.17 35.66 36.68 37.14 33.70 33.79 37.41 36.57 34.75 35.53 35.19 35.63 40.39 35.03 28.83 25.50 23.92 33.94 28.81 31.52 32.32 31.90 32.12 28.55 27.70 26.29 32.41 40.58 42.25 44.15 34.21 33.63 42.64
47.13 47.40 47.88 48.18 48.28 48.56 48.39 49.33 49.77 50.32 50.61 46.99 41.14 43.65 42.41 37.58 36.28 37.76 38.65 35.30 37.37 37.04 33.82 36.80 35.63 37.18 34.33 31.28 28.40 26.86 29.21 34.17 32.92 34.44 33.11 33.53 31.79 28.91 29.61 28.00 29.22 42.07 41.64 35.83 39.29 42.26 43.37
46.78 46.93 47.36 47.85 48.26 48.61 48.17 49.24 49.89 50.26 50.80 49.88 42.96 43.10 45.24 40.36 38.21 39.67 41.00 41.76 40.21 40.15 37.87 38.76 37.05 36.57 38.00 32.61 34.35 32.18 33.40 34.39 33.44 28.81 37.47 31.91 35.70 33.70 35.74 36.51 43.12 43.16 43.27 44.83 43.09 41.93 43.35
MSLP
1023.30 1022.99 1022.71 1022.44 1022.15 1021.83 1021.48 1021.12 1020.76 1020.41 1020.04 1019.67 1019.30 1018.90 1018.50 1018.02 1017.61 1017.35 1017.10 1016.85 1016.58 1016.31 1016.17 1015.91 1015.54 1015.20 1014.82 1014.09 1011.10 1007.96 1007.88 1008.45 1008.67 1008.82 1008.19 1007.94 1008.58 1009.52 1010.20 1009.96 1010.18 1009.54 1009.04 1009.00 1008.81 1008.55 1007.69
1023.45 1023.16 1022.85 1022.52 1022.17 1021.82 1021.49 1021.07 1020.64 1020.26 1019.89 1019.52 1019.13 1018.71 1018.31 1017.90 1017.49 1017.04 1016.62 1016.27 1016.03 1015.91 1015.80 1015.56 1015.25 1015.11 1015.06 1012.82 1010.04 1008.94 1009.23 1008.94 1008.57 1009.03 1008.81 1008.28 1007.64 1008.10 1008.95 1009.45 1009.65 1008.91 1008.78 1008.63 1008.64 1008.33 1007.45
1023.54 1023.17 1022.80 1022.43 1022.06 1021.66 1021.33 1020.96 1020.50 1020.06 1019.68 1019.29 1018.87 1018.46 1018.05 1017.63 1017.13 1016.62 1016.21 1015.79 1015.43 1015.20 1014.99 1014.88 1014.94 1014.79 1013.53 1009.71 1009.49 1009.23 1009.44 1009.46 1008.80 1008.50 1008.44 1008.27 1007.73 1008.05 1008.37 1009.18 1008.89 1008.81 1008.90 1008.64 1008.15 1007.56 1007.14
1023.79 1023.37 1022.93 1022.55 1022.12 1021.69 1021.27 1020.83 1020.31 1019.84 1019.41 1018.99 1018.55 1018.16 1017.77 1017.30 1016.84 1016.37 1015.88 1015.29 1014.77 1014.29 1014.09 1014.05 1014.38 1014.59 1011.82 1009.81 1009.40 1009.26 1008.91 1008.27 1008.41 1008.86 1008.46 1007.95 1008.14 1008.23 1008.53 1008.91 1008.73 1008.93 1008.66 1008.38 1007.08 1006.87 1006.50
1023.89 1023.47 1023.02 1022.59 1022.21 1021.85 1021.45 1020.99 1020.45 1019.94 1019.37 1018.81 1018.32 1017.89 1017.46 1017.01 1016.53 1016.02 1015.53 1014.86 1014.05 1013.42 1013.23 1013.65 1014.52 1014.26 1011.21 1009.50 1009.01 1007.55 1008.28 1008.00 1007.47 1007.95 1008.15 1008.04 1007.92 1008.20 1008.60 1009.14 1009.48 1008.98 1008.60 1008.01 1007.18 1006.46 1006.35
1023.56 1023.14 1022.69 1022.24 1021.89 1021.61 1021.28 1020.82 1020.33 1019.83 1019.32 1018.79 1018.26 1017.77 1017.35 1016.87 1016.25 1015.79 1015.24 1014.31 1013.36 1013.09 1013.25 1013.53 1013.83 1014.05 1011.22 1008.83 1007.80 1006.71 1006.38 1006.96 1007.28 1007.28 1007.93 1008.23 1008.02 1007.89 1007.90 1008.38 1007.47 1008.49 1008.24 1007.58 1006.87 1006.11 1005.95
1023.57 1023.13 1022.75 1022.39 1022.00 1021.62 1021.17 1020.65 1020.13 1019.60 1019.06 1018.53 1018.03 1017.57 1017.07 1016.60 1016.20 1015.78 1015.20 1014.55 1013.87 1013.70 1013.36 1013.21 1012.92 1011.98 1009.70 1007.69 1006.98 1006.05 1006.07 1007.02 1007.12 1006.83 1007.13 1007.36 1007.89 1005.83 1005.06 1006.09 1006.78 1007.14 1007.40 1006.78 1005.96 1006.12 1006.27
1023.76 1023.35 1022.96 1022.54 1022.12 1021.65 1021.10 1020.52 1019.96 1019.38 1018.81 1018.26 1017.74 1017.27 1016.82 1016.36 1015.90 1015.50 1015.49 1015.42 1014.59 1014.90 1013.47 1012.13 1011.22 1010.44 1009.29 1008.52 1008.05 1006.38 1005.33 1005.60 1006.14 1005.21 1006.40 1007.19 1004.32 1004.46 1005.27 1005.86 1006.27 1006.58 1006.64 1006.19 1005.64 1005.99 1006.24
1023.95 1023.45 1022.99 1022.56 1022.11 1021.61 1021.06 1020.46 1019.82 1019.19 1018.58 1018.02 1017.50 1016.99 1016.53 1016.07 1015.52 1015.60 1015.75 1015.36 1014.87 1014.66 1013.72 1010.93 1008.95 1008.28 1007.70 1007.51 1007.28 1005.24 1005.67 1004.23 1004.29 1005.02 1004.39 1003.84 1001.34 1004.10 1004.40 1004.72 1005.35 1005.47 1005.50 1005.77 1005.58 1006.15 1005.92
1024.09 1023.63 1023.12 1022.66 1022.15 1021.56 1020.91 1020.22 1019.57 1018.93 1018.31 1017.73 1017.22 1016.75 1016.30 1015.82 1015.42 1015.75 1015.40 1014.88 1014.83 1014.46 1013.47 1009.57 1007.82 1006.37 1006.23 1006.31 1005.21 1003.95 1003.56 1003.57 1003.52 1003.32 1004.08 1003.61 1003.14 1002.93 1003.29 1003.21 1003.93 1004.19 1004.74 1005.44 1006.00 1006.85 1007.07
1024.26 1023.72 1023.19 1022.62 1022.05 1021.44 1020.80 1020.07 1019.31 1018.55 1017.90 1017.33 1016.79 1016.31 1015.97 1015.80 1015.89 1015.52 1015.23 1014.74 1014.45 1014.31 1012.28 1007.46 1006.13 1004.85 1004.86 1005.24 1003.80 1001.96 1002.76 1002.97 1002.38 1002.39 1002.97 1001.28 1001.43 1001.88 1001.73 1001.73 1003.06 1003.05 1004.29 1005.29 1006.35 1007.01 1007.48
1024.27 1023.65 1023.13 1022.55 1021.98 1021.31 1020.58 1019.85 1019.09 1018.27 1017.61 1016.99 1016.36 1015.88 1015.58 1015.37 1015.62 1015.18 1015.03 1014.77 1014.46 1014.25 1010.53 1007.10 1006.00 1005.41 1005.18 1004.74 1003.80 1002.25 1002.24 1002.83 1001.92 1002.14 1001.59 1001.29 1000.82 1001.05 1000.56 1001.76 1002.62 1003.62 1004.56 1005.95 1006.76 1007.52 1007.22
1024.19 1023.75 1023.11 1022.50 1021.94 1021.24 1020.47 1019.73 1018.90 1018.11 1017.41 1016.73 1016.07 1015.56 1015.44 1015.21 1015.01 1015.02 1015.01 1014.84 1014.52 1012.51 1008.90 1007.93 1007.14 1006.50 1005.48 1005.05 1003.90 1003.24 1002.55 1002.41 1001.59 1001.82 1001.64 1001.47 1000.98 1000.43 1000.30 1001.27 1002.32 1003.53 1004.93 1007.02 1007.75 1007.86 1006.75
1024.15 1023.65 1023.02 1022.40 1021.84 1021.15 1020.41 1019.66 1018.86 1018.08 1017.28 1016.51 1015.80 1015.25 1015.00 1014.84 1014.95 1014.81 1015.18 1015.00 1013.61 1010.96 1009.71 1008.55 1007.92 1006.78 1006.58 1006.25 1005.02 1004.42 1003.40 1003.14 1002.89 1001.95 1001.41 1001.37 1001.02 1000.04 999.32 999.65 1000.80 1002.28 1003.79 1005.02 1006.87 1007.01 1006.15
1024.07 1023.54 1022.92 1022.28 1021.72 1021.05 1020.33 1019.56 1018.74 1017.88 1017.01 1016.26 1015.53 1015.36 1015.27 1014.77 1014.56 1014.80 1014.90 1014.35 1012.72 1011.42 1010.35 1009.48 1008.28 1007.61 1007.09 1007.08 1007.24 1005.88 1004.86 1003.88 1003.34 1002.76 1002.06 1000.99 1000.13 998.80 998.65 999.03 1000.10 1001.86 1002.79 1003.97 1005.16 1005.64 1005.55
1024.04 1023.46 1022.86 1022.27 1021.64 1021.03 1020.30 1019.50 1018.67 1017.77 1016.90 1016.10 1015.99 1015.59 1015.26 1014.39 1014.37 1014.69 1014.66 1013.87 1012.67 1011.49 1010.85 1010.12 1009.34 1008.52 1008.32 1007.71 1007.46 1007.49 1006.14 1004.98 1004.35 1003.65 1002.67 1000.88 1000.19 998.64 998.58 998.92 999.41 999.72 1001.79 1003.72 1004.51 1005.27 1005.06
1024.01 1023.36 1022.78 1022.17 1021.57 1020.95 1020.22 1019.47 1018.67 1017.78 1016.97 1016.21 1016.18 1015.94 1015.25 1014.48 1014.68 1014.69 1014.57 1013.74 1012.59 1011.44 1010.94 1010.44 1009.87 1009.57 1008.98 1008.38 1007.62 1007.63 1007.43 1006.49 1005.27 1004.19 1002.85 1001.91 1000.78 999.34 998.56 997.71 998.39 999.95 1000.73 1001.83 1003.05 1004.09 1003.95
1024.01 1023.33 1022.69 1022.01 1021.41 1020.82 1020.14 1019.43 1018.66 1017.84 1017.06 1016.61 1016.70 1016.24 1014.71 1014.48 1014.81 1014.87 1014.49 1013.59 1012.56 1011.48 1010.96 1010.59 1010.11 1009.80 1009.17 1008.66 1008.04 1007.56 1007.54 1007.56 1006.74 1005.88 1004.74 1003.73 1002.45 1000.58 998.92 997.98 998.21 998.64 999.25 1000.01 1001.34 1002.35 1002.89
1023.97 1023.28 1022.63 1021.92 1021.27 1020.70 1020.09 1019.41 1018.67 1017.90 1017.27 1017.25 1017.10 1016.47 1014.95 1015.01 1015.32 1015.02 1014.45 1013.62 1012.81 1011.89 1011.19 1010.67 1010.28 1009.66 1009.23 1008.98 1008.77 1007.69 1007.52 1007.60 1007.36 1006.90 1005.93 1004.90 1003.59 1002.21 1000.39 999.28 998.23 997.89 998.35 999.35 1000.34 1001.34 1001.83
1023.85 1023.23 1022.56 1021.87 1021.17 1020.62 1020.04 1019.35 1018.63 1017.96 1017.42 1017.68 1017.66 1017.16 1016.21 1015.70 1015.77 1015.45 1014.81 1013.71 1012.84 1011.83 1011.23 1010.80 1010.35 1009.82 1009.61 1009.10 1008.49 1008.05 1007.52 1006.80 1006.75 1007.03 1006.50 1005.81 1004.81 1003.59 1001.44 999.46 998.58 998.56 998.62 999.03 999.76 1000.52 1000.36
1023.72 1023.08 1022.41 1021.74 1021.04 1020.46 1019.92 1019.28 1018.62 1018.02 1017.64 1017.82 1018.09 1017.82 1017.17 1016.73 1016.02 1015.60 1015.28 1014.33 1013.34 1012.40 1011.67 1010.99 1010.40 1010.05 1010.07 1009.53 1008.61 1007.84 1007.35 1006.84 1006.44 1006.60 1007.11 1006.82 1005.82 1004.37 1002.52 1000.88 999.94 998.70 997.87 997.92 997.97 998.56 998.80
1023.59 1022.88 1022.23 1021.58 1020.93 1020.25 1019.76 1019.30 1018.68 1018.13 1017.69 1017.98 1018.29 1018.10 1017.33 1016.85 1016.35 1015.75 1014.95 1014.20 1013.60 1012.73 1012.20 1011.25 1010.80 1010.37 1010.16 1009.82 1008.93 1008.19 1007.76 1007.16 1006.69 1006.77 1007.19 1007.50 1006.43 1005.04 1003.03 1000.83 1000.14 999.05 997.99 997.31 997.39 997.57 997.82
1023.34 1022.60 1021.94 1021.35 1020.74 1020.06 1019.52 1019.09 1018.61 1018.15 1017.86 1018.08 1017.99 1017.68 1017.44 1016.62 1016.14 1015.99 1015.45 1014.54 1013.92 1013.29 1011.82 1011.27 1010.96 1010.63 1009.82 1009.20 1008.87 1008.23 1007.72 1007.28 1007.01 1007.09 1007.05 1007.40 1007.01 1006.01 1004.23 1002.23 1000.51 998.67 996.50 997.10 997.16 996.65 997.03
1023.04 1022.30 1021.65 1021.09 1020.46 1019.84 1019.37 1018.93 1018.40 1017.90 1017.69 1017.97 1017.88 1017.87 1017.41 1016.74 1016.37 1015.74 1014.94 1014.44 1013.79 1013.29 1012.52 1011.44 1011.00 1010.44 1009.54 1008.99 1008.27 1007.29 1006.75 1006.44 1006.18 1005.98 1006.18 1006.56 1006.84 1006.39 1004.98 1003.01 1000.66 997.27 995.65 996.24 996.86 996.65 996.78
1022.76 1022.04 1021.42 1020.78 1020.20 1019.63 1019.03 1018.59 1018.08 1017.66 1017.37 1017.65 1017.56 1017.60 1017.23 1016.39 1015.55 1014.77 1014.31 1013.90 1013.33 1012.65 1012.00 1011.29 1010.46 1009.79 1009.55 1009.22 1008.53 1007.46 1006.48 1006.09 1005.16 1004.93 1005.38 1006.06 1006.68 1006.32 1005.29 1003.51 1000.29 997.67 997.58 997.90 997.32 997.11 996.98
1022.54 1021.79 1021.14 1020.53 1019.94 1019.30 1018.63 1017.93 1017.49 1017.10 1016.91 1016.93 1016.90 1016.97 1016.83 1016.21 1014.72 1014.20 1013.80 1013.29 1012.74 1012.07 1011.35 1010.78 1010.03 1009.52 1009.47 1009.37 1008.91 1008.20 1007.02 1005.55 1005.12 1004.89 1005.20 1005.79 1006.24 1006.39 1005.43 1004.24 1001.41 999.77 999.01 998.33 998.26 998.57 998.52
1022.31 1021.54 1020.84 1020.23 1019.56 1018.94 1018.17 1017.36 1016.93 1016.59 1016.34 1016.47 1016.47 1016.56 1016.47 1015.92 1014.18 1013.85 1013.30 1012.86 1012.50 1012.10 1011.68 1010.97 1010.54 1009.89 1009.59 1009.18 1008.86 1008.11 1006.92 1005.78 1005.22 1004.70 1005.15 1005.55 1006.39 1006.18 1005.59 1004.54 1002.04 1000.98 999.00 997.99 999.07 1000.60 999.62
1022.00 1021.24 1020.49 1019.75 1019.06 1018.46 1017.70 1016.99 1016.60 1016.09 1015.70 1016.10 1016.17 1016.07 1016.23 1015.30 1013.57 1012.93 1012.62 1012.35 1012.06 1012.02 1011.67 1011.14 1010.84 1010.15 1009.71 1009.29 1008.98 1008.25 1007.15 1006.13 1005.29 1005.14 1005.26 1005.39 1005.82 1005.93 1005.63 1004.47 1002.76 1001.22 999.84 1000.60 1001.75 1000.82 1000.36
1021.68 1020.93 1020.12 1019.29 1018.56 1017.97 1017.21 1016.53 1015.97 1015.55 1015.22 1015.26 1015.58 1015.42 1015.47 1015.31 1013.20 1012.44 1011.87 1011.34 1010.97 1010.67 1011.45 1011.22 1010.92 1010.62 1009.96 1009.49 1009.17 1008.47 1007.56 1007.04 1006.50 1006.23 1006.15 1005.91 1005.74 1005.69 1005.54 1003.82 1002.46 1002.18 1001.94 1001.54 1001.42 1001.20 1000.27
Wind_Speed
18 18 17 17 17 17 17 17 16 16 16 16 17 17 17 16 17 17 17 18 19 18 17 15 14 14 6 3 10 9 20 11 7 2 9 9 11 9 7 6 7 7 12 7 9 10 11
17 18 18 17 17 16 18 18 18 17 17 17 17 17 18 18 18 18 17 17 17 17 17 15 14 12 5 18 8 9 12 7 6 4 3 7 9 8 6 6 6 6 7 8 6 12 13
19 18 18 18 19 18 18 20 19 19 19 18 18 18 18 19 20 20 19 20 18 17 19 17 14 10 14 27 7 12 18 6 7 5 6 8 2 7 6 2 5 4 4 8 10 10 9
18 19 18 19 19 20 21 21 21 21 21 19 19 18 19 20 20 20 21 21 22 23 22 17 14 9 14 6 10 17 17 11 15 12 3 6 6 5 3 2 3 1 3 3 4 5 7
15 16 16 15 15 17 18 18 19 19 21 21 20 19 20 21 21 21 21 23 25 24 17 11 6 6 14 10 8 15 18 12 7 11 7 7 8 7 4 6 4 2 9 9 6 11 6
17 17 18 19 18 19 18 19 19 20 20 20 20 19 18 20 22 21 21 23 18 2 5 6 5 3 7 6 6 6 8 20 7 8 6 7 5 6 6 7 16 6 6 6 9 4 4
19 19 20 20 20 19 19 19 20 21 21 21 21 20 19 19 19 18 15 7 3 2 1 5 8 9 16 5 10 5 5 12 8 5 9 8 8 22 27 20 7 10 14 10 8 4 6
19 19 18 18 19 19 19 21 21 22 22 22 22 22 20 18 19 18 6 1 3 0 10 11 17 23 25 13 12 13 13 8 10 16 12 7 31 19 14 16 19 12 15 14 16 6 5
19 18 19 19 20 19 20 21 21 21 21 20 20 21 20 19 19 4 0 4 6 8 6 10 11 9 12 12 16 20 9 6 8 12 25 28 26 14 17 19 17 19 21 19 19 4 4
18 19 19 19 19 19 21 21 21 21 21 20 19 18 18 18 4 2 5 2 5 6 4 9 6 8 5 7 10 28 8 7 7 20 16 20 25 21 16 23 18 25 16 15 14 1 5
19 18 19 18 19 20 21 22 22 22 21 20 20 20 16 10 8 4 4 7 7 1 5 2 4 2 5 9 5 8 25 12 10 11 11 14 19 31 23 23 23 13 13 13 9 5 2
19 19 20 20 21 22 21 21 22 22 19 20 20 19 17 6 2 6 4 7 1 1 10 4 5 12 2 6 11 7 15 16 5 8 12 9 5 19 23 14 18 8 6 6 4 3 7
19 20 21 21 21 22 22 22 22 22 19 21 20 21 14 7 4 3 2 3 2 5 6 4 7 16 12 20 3 3 4 18 12 11 8 5 9 2 11 8 7 9 9 0 3 3 6
19 20 20 20 21 22 21 21 21 21 20 21 20 19 4 4 1 3 2 2 7 3 5 10 8 6 14 16 14 15 6 5 17 4 8 7 5 13 11 9 13 22 14 10 9 5 5
20 20 21 22 21 22 21 21 21 22 21 21 18 4 3 3 2 4 2 4 4 4 4 10 10 6 4 11 10 13 6 6 5 15 5 9 8 5 17 8 19 8 15 9 5 2 2
19 19 20 21 21 23 22 22 22 22 23 22 4 4 4 10 4 2 1 3 4 4 7 6 2 4 5 11 7 13 10 13 11 10 7 5 2 8 14 9 18 15 12 7 3 6 5
20 19 20 20 21 22 22 22 23 23 22 16 3 3 4 6 1 1 1 4 5 8 7 3 2 5 8 11 6 4 6 15 17 21 8 5 2 2 11 18 14 5 11 4 7 6 6
21 20 20 21 21 21 21 21 22 22 18 4 3 3 4 0 1 1 2 3 5 7 5 4 3 7 8 9 5 2 5 8 16 17 10 3 3 3 16 6 19 14 9 9 10 10 3
21 22 21 20 21 22 22 21 21 21 13 3 3 3 2 2 3 2 4 5 4 3 3 3 4 3 3 5 6 7 2 7 9 16 12 8 5 3 3 5 4 24 14 9 6 5 13
21 22 21 21 20 21 21 21 19 19 12 3 3 5 5 4 1 3 6 5 4 4 6 4 4 5 3 6 4 5 5 4 4 10 16 8 3 4 6 3 5 14 15 15 7 5 7
22 23 22 21 20 20 20 21 20 18 9 3 3 2 1 5 3 9 4 4 6 6 3 4 4 2 4 3 7 2 6 4 5 6 6 6 4 3 10 11 8 5 19 18 24 19 8
23 23 23 22 20 20 20 20 19 18 5 3 1 2 3 5 6 6 3 2 4 6 5 5 3 7 6 5 7 8 8 3 3 4 3 6 5 8 6 12 8 10 8 20 22 16 15
22 22 22 22 21 19 19 19 18 17 4 1 2 3 1 3 6 3 4 4 6 14 8 6 6 11 12 10 5 10 10 10 7 3 5 3 3 6 5 10 8 9 20 9 13 18 13
22 22 22 22 21 19 19 19 17 16 6 1 2 2 2 4 2 4 6 13 14 13 13 15 12 5 5 9 12 9 10 12 12 13 9 6 4 2 4 5 6 6 7 15 13 7 13
23 23 24 23 23 20 20 19 18 16 13 2 1 2 1 4 5 11 8 9 12 12 6 8 8 5 5 4 3 4 3 2 8 14 14 10 4 3 2 3 7 6 8 7 3 10 8
25 26 24 23 23 21 21 20 17 15 12 3 3 3 2 3 5 5 11 10 7 5 5 5 5 5 1 1 1 2 3 1 2 4 10 10 8 4 1 2 5 1 12 11 7 6 11
25 25 26 25 24 22 21 20 18 16 13 2 2 4 2 4 7 4 5 4 4 3 4 6 6 5 5 2 2 2 3 3 3 2 5 5 5 8 6 3 7 10 19 10 8 5 17
26 25 25 25 24 23 22 20 18 16 13 3 3 5 3 4 9 8 6 5 4 4 3 4 6 0 2 2 1 3 2 2 3 3 1 4 5 4 3 4 6 13 7 9 7 8 10
26 26 26 26 25 22 22 20 18 15 13 3 3 2 3 4 8 4 15 18 14 18 7 3 3 4 2 2 2 2 2 1 3 3 3 3 3 2 3 3 4 8 5 6 4 10 10
Wind_Direction
11 11 10 8 7 4 0 355 351 348 347 344 341 340 336 330 325 323 321 319 317 318 316 313 315 322 349 278 244 265 312 354 43 179 195 161 164 158 194 199 204 211 238 246 262 286 271
8 6 3 -0 358 360 356 350 348 346 343 340 337 336 336 332 327 320 314 313 311 309 308 308 308 310 263 251 240 304 7 336 171 228 233 183 182 185 185 216 201 213 221 250 251 266 276
3 0 359 357 352 352 353 347 344 344 341 340 338 336 333 331 327 324 320 313 307 301 301 297 298 291 256 245 264 294 305 285 325 235 220 232 285 174 163 293 223 227 241 265 233 236 247
358 355 354 352 349 349 346 342 341 342 339 335 334 334 333 330 326 323 321 314 307 295 290 283 286 285 257 256 240 255 263 273 248 264 284 234 250 261 191 265 29 260 153 258 183 201 254
358 354 351 346 347 346 343 340 334 339 334 333 332 330 332 330 326 325 321 312 302 296 290 259 241 232 274 311 247 247 233 232 264 207 213 277 178 195 140 196 325 352 254 249 298 244 242
354 353 352 350 351 349 344 339 340 335 333 331 329 328 327 326 326 327 324 314 303 57 90 136 238 262 262 232 285 242 186 199 198 150 142 186 208 188 178 157 213 194 255 237 233 272 183
352 357 357 357 352 348 341 338 335 333 332 329 328 328 325 325 325 324 333 341 18 3 280 207 190 246 297 300 328 281 153 159 201 153 164 174 193 216 208 207 192 200 231 240 243 192 225
2 359 355 351 347 342 339 338 335 333 330 329 329 328 327 325 323 323 323 287 22 278 298 246 245 236 245 256 285 292 143 140 187 192 152 167 220 214 189 192 207 202 224 239 269 227 205
359 356 355 353 346 342 338 334 331 327 325 325 325 326 327 327 319 25 168 251 342 324 254 275 228 233 230 211 229 253 247 162 179 184 189 201 224 198 186 192 197 216 218 233 244 22 289
359 356 354 349 343 338 335 332 328 323 320 320 319 319 322 330 15 305 281 312 323 305 307 266 214 245 201 215 239 236 231 188 203 196 193 231 231 190 194 209 189 218 209 233 250 205 241
0 354 353 347 342 338 334 333 331 324 319 317 315 317 319 335 299 290 277 323 323 97 310 237 178 183 231 191 302 244 206 226 201 171 169 210 191 210 206 197 191 228 193 215 241 227 242
1 357 352 348 346 340 338 336 335 334 327 320 319 321 321 296 199 249 346 312 109 173 244 281 55 340 301 245 259 307 172 233 186 194 231 202 203 200 214 196 200 162 91 57 48 112 247
0 354 351 347 345 342 342 339 338 338 331 331 327 318 311 285 264 142 359 14 113 213 318 25 349 356 358 344 16 294 250 191 193 186 199 165 230 249 157 130 148 138 116 232 308 267 227
356 352 352 346 344 342 342 340 338 335 331 333 325 313 256 267 295 252 104 92 220 266 281 343 346 349 322 6 339 350 321 192 234 249 173 161 195 193 179 179 168 181 167 161 187 204 234
352 349 347 345 341 341 340 339 339 337 332 331 326 318 321 265 252 196 216 210 236 347 8 345 334 359 346 12 345 340 330 352 16 228 253 187 232 164 180 169 164 189 210 163 131 211 117
349 346 344 341 339 338 338 339 339 339 338 330 324 331 339 326 145 184 107 247 280 342 336 331 18 350 338 350 332 352 323 36 353 354 334 261 174 205 193 150 192 178 148 167 198 192 225
346 346 343 340 339 335 336 339 339 339 340 336 32 13 273 353 286 136 156 250 282 285 329 261 307 324 318 311 314 338 293 309 358 -0 336 345 157 292 139 199 167 136 178 135 153 148 166
341 342 340 341 337 334 335 339 339 340 340 17 332 27 287 264 273 104 255 260 295 293 290 276 264 230 254 292 312 304 271 284 332 340 344 314 305 211 215 147 197 203 178 163 192 190 182
337 338 337 338 338 335 334 336 338 340 353 322 331 276 312 310 53 351 276 281 264 291 288 324 303 256 343 310 326 347 88 252 336 336 347 346 313 134 15 266 202 199 197 158 106 110 203
335 334 334 336 337 337 335 333 335 340 352 63 11 345 319 34 165 314 329 286 302 280 265 258 260 269 295 303 255 269 277 276 289 311 324 329 271 259 200 266 105 204 201 200 150 157 163
335 335 334 334 337 339 335 334 342 341 358 83 26 319 43 316 333 316 296 291 318 334 339 300 318 321 349 281 310 254 359 297 268 33 18 353 274 264 276 272 307 325 202 200 210 214 182
333 334 334 333 337 339 336 333 337 339 359 68 33 359 328 295 293 317 329 272 292 290 313 303 231 322 314 248 259 286 300 9 300 128 96 323 289 348 302 288 269 270 254 217 210 218 223
332 330 332 333 334 338 335 333 330 333 36 24 311 300 253 270 309 16 272 340 315 317 285 229 296 312 296 281 323 289 272 265 242 178 193 180 309 352 293 341 312 254 237 226 224 214 183
333 331 332 332 331 332 332 333 323 323 333 199 238 263 276 294 287 276 284 295 289 297 291 287 284 263 255 329 311 265 249 243 229 224 210 187 153 237 269 318 208 251 188 197 212 228 231
335 332 333 332 332 329 332 326 320 320 325 182 226 232 262 273 262 285 272 306 305 307 270 262 282 240 323 285 286 298 268 203 234 220 200 203 127 261 225 265 288 316 45 2 154 241 188
333 333 332 332 331 330 332 324 319 315 318 190 207 187 239 273 245 259 305 298 294 299 306 251 282 309 334 314 296 223 242 305 231 130 193 203 203 218 269 229 229 277 323 314 253 218 8
331 332 332 332 328 328 331 324 320 318 311 230 261 186 264 270 277 230 238 299 280 281 275 299 336 337 346 219 222 278 263 275 246 172 149 92 135 199 225 274 286 343 321 310 138 289 328
330 332 331 329 326 329 330 324 321 315 302 189 251 186 204 251 275 229 248 223 245 235 276 334 316 63 294 261 218 260 279 297 332 37 148 117 169 180 197 237 273 359 13 54 272 297 307
328 330 331 327 326 329 331 321 316 310 302 253 239 196 168 241 267 285 265 258 230 244 261 236 274 289 275 310 337 280 288 4 288 206 245 155 194 126 255 286 329 326 299 271 275 303 307